Location: Newark
(34.9500°N, 139.9667°E)
Time: 08:48:57
(UTC+00:00)

Vanguard 1 Rocket - Pass Details

Date: 10 December 2019
Orbit: 650 x 4226 km, 34.3° (Epoch: 24 January)

Event Time Altitude Azimuth Distance (km) Brightness Sun altitude
Rises 07:03:18 0° 190° (S) 8,426 13.0 3.7°
Reaches altitude 10° 07:12:52 10° 174° (S) 7,380 12.4 2.0°
Maximum altitude 07:26:41 18° 140° (SE) 6,167 11.5 -0.5°
Drops below altitude 10° 07:37:54 10° 105° (ESE) 5,992 11.1 -2.5°
Sets 07:43:58 0° 89° (E) 6,390 11.1 -3.6°
